Flag for Angola Weather past 2 weeks in Lubango, Angola

Now
64 °F

Mild.


Feels Like: 64 °F
Forecast: 47 / 84 °F
Wind: 3 mph from South

Location: Ondangwa

Current Time: Sep 5, 2015 at 7:13:25 AM

Latest Report: Sep 5, 2015 at 4:00 AM


Visibility: N/A

Pressure: 30.04 "Hg (24.42 "Hg at 1765m altitude)

Humidity: 19%

Dew point: 21 °F

Location of LubangoLocation

Historic Weather in Lubango — Graph

°F

Lubango temperature yesterday

Maximum temperature yesterday: 97 °F (at 2:00 PM)
Minimum temperature yesterday: 63 °F (at 7:00 AM)
Average temperature yesterday: 80 °F

Past Weeks' High & Low Weather Summary

 TemperatureHumidityPressure
High97 °F (Sep 4, 2:00 PM)52% (Aug 30, 6:00 AM)30.12 "Hg (Aug 30, 6:00 AM)
Low55 °F (Sep 2, 7:00 AM)8% (Sep 4, 5:00 PM)29.86 "Hg (Aug 22, 3:00 PM)
Average75 °F23%30.02 "Hg
* Reported Aug 21 4:00 AM — Sep 5 4:00 AM, Lubango, Weather by CustomWeather, © 2015

Note: Actual official high and low records may vary slightly from our data, if they occured in-between our weather recording intervals... More about our weather records

Advertising

Lubango weather history for previous 24 hours

 ConditionsComfort  
Time TempWeatherWind HumidityBarometerVisibility
4:00 AM
Sat, Sep 5
64 °FMild.3 mph19%30.04 "HgN/A
3:00 AM68 °FMild.7 mph17%30.01 "HgN/A
1:00 AM73 °FMild.5 mph15%30.01 "HgN/A
12:00 AM68 °FMild.3 mph20%30.01 "HgN/A
11:00 PM
Fri, Sep 4
73 °FMild.3 mph16%30.01 "HgN/A
10:00 PM73 °FMild.3 mph16%30.04 "HgN/A
7:00 PM81 °FPleasantly warm.No wind13%29.98 "HgN/A
6:00 PM88 °FPleasantly warm.3 mph10%29.98 "HgN/A
5:00 PM93 °FExtremely hot.6 mph8%29.95 "HgN/A
2:00 PM97 °FSunny.No wind13%29.98 "Hg10 mi
1:00 PM93 °FSunny.3 mph15%30.01 "Hg10 mi
12:00 PM91 °FSunny.5 mph16%30.04 "Hg10 mi
11:00 AM90 °FSunny.6 mph18%30.07 "Hg10 mi
10:00 AM86 °FSunny.6 mph22%30.09 "Hg10 mi
8:00 AM70 °FSunny.3 mph27%30.09 "Hg10 mi
7:00 AM63 °FSunny.5 mph30%30.07 "Hg10 mi
Weather by CustomWeather, © 2015

See weather overviewHow to use our weather pages